Terminal Aerodrome Forecast
Issued by NWS

Home | Current Version | Previous Version | Text Only | Print | Product List | Glossary On
Versions: 1 2 3 4 5 6 7 8 9 10 11 12 13 14 15 16
000
FTUS41 KBGM 281133
TAFITH
TAF
KITH 281133Z 2812/2912 16010KT P6SM SCT040 BKN100
     FM281800 18012G22KT P6SM BKN045 PROB30 2821/2824 3SM TSRA BR
      OVC015CB
     FM290000 VRB03KT P6SM SCT035 BKN060
     FM290600 33008KT P6SM BKN012=

USA.gov is the U.S. government's official web portal to all federal, state and local government web resources and services.